Please be sure to check the latest weather conditions by clicking the link and viewing our local weather information!

Check Weather

Welcome to Lakeway Airpark (3R9)

FromTheAir

We’re a community airpark nestled within the town of Lakeway, Texas (17 miles northwest of downtown Austin).

Lakeway Airpark, Inc. was formed by Lakeway residents and interested parties to own and manage Lakeway Airpark (3R9).

The Airpark is a privately owned not for profit public use airport for residents and guests of Lakeway. No public funds are used and the airport is supported by fees and fuel sales at the airport.

Lakeway Airpark is an unmanned facility open for use from Sunrise to Sunset seven days a week. Takeoffs and landings are not permitted at night, between Sunset and Sunrise, by City Ordinance.

Quick Weather Info

Available data for KAUS from the past 2 hours
AUSTIN, TX
Metar
KAUS 210053Z 16005KT 10SM SCT080 34/20 A2992 RMK AO2 SLP117 T03440200

00:53 UTC

Wind: 160° 5kt

Visibility: 10 SM

Sky: SCT 8000 ft

Temp: 34 deg C / 93.2 deg F

Dewpoint: 20 deg C / 68 deg F

Pressure: 29.92 inHg

TAF
KAUS 202326Z 2100/2206 16009KT P6SM FEW070 FM211000 18006KT P6SM SCT013 TEMPO 2110/2113 BKN013 FM211500 15010KT P6SM SCT060